Weather History for MDPP - June, 2013

Change the Weather History Date:

Tuesday, June 11, 2013

  Actual Average Record
Temperature  
Mean Temperature 80 °F -  
Max Temperature 86 °F 87 °F 96 °F (1997)
Min Temperature 73 °F 74 °F 70 °F (2014)
Cooling Degree Days 14    
Growing Degree Days 30 (Base 50)    
Moisture  
Dew Point 77 °F    
Average Humidity 88    
Maximum Humidity 100    
Minimum Humidity 79    
Precipitation  
Precipitation 0.00 in - - ()
Sea Level Pressure  
Sea Level Pressure 30.03 in    
Wind  
Wind Speed 4 mph ()    
Max Wind Speed 16 mph    
Max Gust Speed -    
Visibility 6.8 miles    
Events Rain , Thunderstorm    
Averages and records for this station are not official NWS values.
T = Trace of Precipitation, MM = Missing Value Source: Averaged Metar Reports

Daily Weather History Graph

Daily Weather History Graph

Search for Another Location

Airport or City:

Trip Planner

Search our weather history database for the weather conditions in past years. The results will help you decide how hot, cold, wet, or windy it might be!

Date:

Astronomy

Jun. 11, 2013 Rise Set
Actual Time 6:02 AM AST 7:21 PM AST
Civil Twilight 5:38 AM AST 7:45 PM AST
Nautical Twilight 5:09 AM AST 8:14 PM AST
Astronomical Twilight 4:39 AM AST 8:44 PM AST
Moon 8:28 AM AST (6/11) 9:40 PM AST (6/11)
Length of Visible Light 14h 07m
Length of Day
13h 18m
Waxing Crescent, 8% of the Moon is Illuminated
Jun 11
Waxing Crescent
Jun 16
First Quarter
Jun 23
Full
Jun 30
Last Quarter
Jul 8
New

Hourly Weather History & Observations

Time (AST) Temp. Heat Index Dew Point Humidity Pressure Visibility Wind Dir Wind Speed Gust Speed Precip Events Conditions
2:00 AM 75 °F - 73 °F 91% 30.04 in 10 mi Calm Calm - -   Mostly Cloudy
2:00 AM 75.2 °F - 73.4 °F 94% 30.04 in 6.2 mi Calm Calm - N/A   Mostly Cloudy
5:00 AM 75.2 °F - 75.2 °F 100% 30.01 in 6.2 mi Calm Calm - N/A   Mostly Cloudy
8:00 AM 77 °F - 75 °F 92% 30.05 in 10 mi Calm Calm - -   Scattered Clouds
8:00 AM 77.0 °F - 75.2 °F 94% 30.04 in 6.2 mi Calm Calm - N/A   Mostly Cloudy
9:00 AM 82.4 °F 90.9 °F 77.0 °F 84% 30.04 in 6.2 mi East 5.8 mph - N/A   Scattered Clouds
10:00 AM 84.2 °F 94.1 °F 77.0 °F 79% 30.06 in 6.2 mi ENE 11.5 mph - N/A   Mostly Cloudy
11:00 AM 80.6 °F 87.1 °F 77.0 °F 89% 30.04 in 5.0 mi SSE 5.8 mph - N/A Rain Light Rain
12:00 PM 84.2 °F 96.1 °F 78.8 °F 84% 30.04 in 6.2 mi East 9.2 mph - N/A Thunderstorm Thunderstorm
1:00 PM 80.6 °F 88.1 °F 78.8 °F 94% 30.04 in 5.0 mi East 11.5 mph - N/A Rain Light Rain
2:00 PM 84 °F - 79 °F 81% 30.04 in 10 mi ESE 8.9 mph - - Rain Light Rain
2:00 PM 84.2 °F 96.1 °F 78.8 °F 84% 30.04 in 6.2 mi ESE 9.2 mph - N/A   Mostly Cloudy
3:00 PM 82.4 °F 92.4 °F 78.8 °F 89% 30.01 in 6.2 mi East 16.1 mph - N/A   Scattered Clouds
4:00 PM 82.4 °F 90.9 °F 77.0 °F 84% 30.01 in 6.2 mi ESE 11.5 mph - N/A   Mostly Cloudy
5:00 PM 82 °F - 78 °F 83% 30.01 in 10 mi ESE 6.7 mph - -   Mostly Cloudy
5:00 PM 82.4 °F 90.9 °F 77.0 °F 84% 30.01 in 6.2 mi ESE 5.8 mph - N/A   Mostly Cloudy
6:00 PM 82.4 °F 90.9 °F 77.0 °F 84% 30.01 in 6.2 mi ESE 6.9 mph - N/A   Mostly Cloudy
7:00 PM 80.6 °F 86.2 °F 75.2 °F 84% 30.01 in 6.2 mi ESE 9.2 mph - N/A   Mostly Cloudy
8:00 PM 78.8 °F - 77.0 °F 94% 30.01 in 6.2 mi Calm Calm - N/A   Mostly Cloudy
11:00 PM 78.8 °F - 75.2 °F 89% 30.04 in 6.2 mi Calm Calm - N/A Thunderstorm Thunderstorm